Temperature
18 19 19 20 17 15 17 18 19 20 20 22 23 22 20 20 20 19 20 20 19 18 17 16 15 15 14 14 13 13 13 12 12 11 11 11 11 11 11 11 11 11 11 11 11 11 11 12 11
18 19 19 19 15 16 17 18 19 20 22 23 23 22 21 20 21 21 20 20 19 18 18 17 16 15 14 14 13 13 12 12 12 11 11 11 11 11 11 11 11 11 11 11 11 11 12 12 11
18 19 19 15 16 16 18 19 19 21 23 23 22 22 21 21 21 21 21 20 19 18 18 17 16 15 15 14 13 13 12 12 12 11 11 11 11 11 11 11 11 11 11 11 11 12 12 12 12
19 19 19 15 17 17 19 19 20 21 22 23 22 20 20 20 20 21 20 20 19 18 18 17 16 16 15 14 13 13 12 12 11 11 11 11 11 11 11 11 11 11 11 11 11 12 12 12 12
19 19 16 16 17 18 18 20 21 20 21 22 22 20 19 20 20 20 20 20 19 19 18 17 16 16 15 14 13 13 12 12 11 11 11 11 11 11 11 11 11 11 11 11 11 11 12 12 12
19 17 15 16 17 19 20 21 22 21 21 22 21 19 19 19 20 20 20 19 19 19 18 17 16 15 15 14 13 13 12 12 11 11 11 10 11 11 11 12 12 12 12 12 12 12 12 11 11
18 15 16 17 17 19 20 21 21 20 20 21 21 18 18 19 19 19 19 18 18 18 17 17 16 15 14 14 13 12 12 12 11 11 11 10 10 11 11 11 11 11 11 11 11 11 11 11 11
19 15 17 17 18 19 20 21 22 22 21 22 21 19 19 19 19 18 18 17 17 17 17 16 16 15 14 13 13 12 12 11 11 11 10 10 10 10 10 11 11 11 11 11 11 11 11 11 11
19 15 16 17 18 19 20 21 21 21 21 21 21 21 21 20 18 18 17 17 16 16 16 15 15 15 14 13 12 12 11 11 11 10 10 10 10 10 10 10 10 11 11 11 11 11 11 11 11
19 15 17 18 19 19 20 20 20 21 20 20 20 20 20 19 18 18 17 17 17 16 16 15 15 14 14 13 12 11 11 11 10 10 10 10 10 10 10 10 10 10 10 10 10 10 10 10 10
18 16 17 19 20 20 20 20 20 20 18 20 20 20 19 19 18 18 17 17 17 17 16 15 14 14 13 13 12 11 11 10 10 10 10 10 9 9 9 9 9 9 9 9 9 9 10 10 10
18 18 19 19 20 20 19 19 19 19 20 20 20 20 19 19 18 18 18 17 17 16 16 15 14 14 13 13 12 11 11 10 10 10 9 9 9 9 9 9 9 8 8 9 9 9 9 9 9
18 18 19 19 19 19 19 19 19 19 20 19 19 19 19 18 18 18 18 17 16 16 16 15 14 14 13 12 12 11 11 10 10 10 9 9 9 9 8 8 8 8 8 8 8 8 8 8 8
18 18 18 19 19 19 18 18 17 19 19 19 19 18 18 18 18 18 17 17 17 16 16 15 14 14 13 12 12 11 11 10 10 9 9 9 9 8 8 8 8 8 8 7 7 8 7 7 7
18 17 16 17 17 18 18 16 16 19 19 18 18 18 18 18 18 18 17 17 17 17 16 15 14 13 13 12 11 11 10 10 10 9 9 9 9 8 8 8 8 8 7 7 7 7 7 7 7
17 16 15 16 17 17 17 16 16 19 18 18 18 18 18 17 17 17 17 17 17 16 15 15 14 13 12 12 11 11 10 10 10 9 9 9 9 8 8 8 8 8 7 7 7 7 7 7 7
15 14 15 15 16 16 16 15 16 18 18 18 18 17 17 17 17 17 17 17 16 16 15 14 14 13 12 12 11 11 10 10 9 9 9 9 9 8 8 8 8 7 7 7 7 7 6 6 6
14 14 15 15 17 16 15 14 15 17 17 17 17 17 16 16 16 16 16 16 16 15 15 14 13 13 12 11 11 10 10 10 9 9 9 9 8 8 8 8 8 7 7 7 7 7 6 6 6
15 15 14 15 16 15 14 15 15 16 16 15 15 16 16 16 16 15 15 15 15 15 14 14 13 13 12 11 11 10 10 10 9 9 9 9 8 8 8 8 8 7 7 7 7 6 6 6 6
14 14 14 15 16 15 14 14 14 14 15 16 15 15 15 15 15 15 15 15 14 14 14 13 13 12 12 11 11 10 10 10 10 9 9 9 9 8 8 8 7 7 7 7 7 6 6 6 6
14 14 14 15 15 15 15 14 14 14 15 15 15 15 15 15 15 15 14 14 14 14 14 13 13 12 12 11 11 11 10 10 10 9 9 9 9 8 8 8 7 7 7 7 6 6 6 6 6
14 15 15 15 14 13 14 12 13 14 14 13 13 13 14 14 15 15 14 14 14 14 13 13 12 12 12 11 11 11 11 10 10 10 9 9 9 8 8 8 7 7 7 7 6 6 6 5 5
15 16 16 15 14 13 12 13 13 14 13 12 11 12 13 14 15 15 14 14 13 13 13 12 12 12 12 11 11 11 11 10 10 9 9 9 8 8 8 7 7 7 7 6 6 6 6 5 5
15 15 14 11 11 12 12 12 12 13 13 13 11 12 13 14 14 14 14 13 13 12 12 12 12 12 12 11 11 11 11 10 10 9 9 9 8 8 7 7 7 7 6 6 6 6 5 5 5
14 13 12 12 11 11 12 12 13 14 14 13 12 12 13 13 13 13 13 13 12 12 12 12 12 12 11 11 11 11 10 10 10 9 9 8 8 8 7 7 7 6 6 6 6 5 5 5 4
13 13 12 12 11 11 13 12 14 15 14 15 15 13 12 13 13 13 13 13 13 12 12 12 12 12 11 11 11 10 10 10 9 9 8 8 8 7 7 6 6 6 6 5 5 5 5 4 4
12 12 13 12 12 12 12 13 14 15 14 13 13 12 11 12 13 14 14 13 13 13 12 12 12 11 11 11 10 10 10 9 9 8 8 7 7 7 6 6 6 5 5 5 5 4 4 4 3
13 12 11 11 11 11 12 13 14 15 14 12 11 11 11 12 13 13 14 13 13 13 12 11 11 11 11 10 10 10 9 9 8 8 7 7 7 6 6 5 5 5 5 4 4 4 4 3 3
13 13 12 11 10 11 12 13 14 14 13 12 11 12 12 12 13 14 14 13 13 12 11 11 11 10 10 10 10 9 9 8 8 7 7 6 6 6 5 5 5 5 4 4 4 3 3 3 2
13 12 12 11 11 10 10 13 14 14 13 12 13 13 13 13 14 14 14 13 12 12 11 11 10 10 10 9 9 9 8 8 7 7 6 6 5 5 5 4 4 4 4 3 3 3 2 2 1
Wind_Speed
4 4 3 4 5 5 3 5 4 4 3 3 4 8 8 5 4 3 2 13 11 16 23 24 22 20 18 17 16 14 14 14 14 13 13 13 13 13 12 12 12 12 12 13 13 13 13 13 13
2 2 4 5 5 1 5 4 4 6 6 4 4 6 6 2 2 6 6 12 17 21 22 23 23 21 19 18 16 15 14 14 13 13 13 12 12 12 11 11 11 11 11 12 12 12 12 12 11
2 1 4 5 4 5 4 5 7 5 5 5 3 4 5 5 3 7 7 16 18 20 22 23 24 22 20 19 17 15 14 14 13 12 12 12 11 11 11 11 10 10 10 11 11 11 11 10 10
3 4 5 4 4 6 6 6 7 5 1 3 5 5 3 1 4 5 11 17 17 16 22 24 24 22 21 19 18 16 15 14 13 12 12 11 11 10 10 10 9 9 9 9 9 9 9 9 8
4 4 4 1 5 5 6 7 8 7 4 2 4 5 1 7 2 9 15 17 18 14 21 24 25 23 21 20 19 17 15 14 13 12 12 11 10 9 9 8 8 8 8 8 8 7 7 7 7
4 5 4 2 5 5 4 5 4 5 3 1 4 5 0 3 5 10 13 14 14 16 20 23 25 23 22 20 19 17 16 15 14 13 12 11 10 9 8 7 7 6 6 6 6 6 5 5 5
4 4 2 3 5 4 3 2 5 7 5 3 5 6 1 3 6 9 11 11 12 17 18 19 22 22 22 21 20 18 17 15 14 13 12 11 10 9 8 7 6 5 4 4 3 3 3 3 3
5 4 1 2 3 4 5 1 2 5 4 2 6 9 6 8 7 8 9 10 11 11 13 16 19 20 20 20 20 19 17 16 15 13 12 12 11 9 8 7 6 5 4 3 2 1 0 1 2
4 4 2 3 1 3 4 3 5 1 4 3 3 5 6 8 9 9 7 7 9 12 10 13 15 17 18 18 19 19 18 17 16 14 14 13 11 10 9 9 8 6 5 4 3 3 3 3 4
5 3 6 4 3 3 1 1 3 2 3 1 3 3 5 8 10 10 10 12 12 14 13 11 12 15 17 16 17 17 17 16 15 14 14 13 12 11 10 10 10 9 7 6 5 6 5 5 5
5 6 6 5 4 4 2 2 1 2 4 6 6 6 7 7 8 10 10 12 14 15 15 14 12 16 15 13 13 13 14 14 14 15 15 14 12 11 10 10 10 9 8 7 7 7 7 7 8
4 6 5 5 3 4 4 3 2 5 8 7 8 10 9 9 10 11 11 10 10 13 16 15 13 13 14 14 12 12 11 11 12 14 15 13 10 9 9 9 10 10 9 8 8 9 10 10 11
4 5 5 5 5 5 5 5 5 7 8 5 5 8 10 10 9 8 9 9 9 13 15 15 13 12 13 12 11 12 11 12 13 14 15 14 10 8 9 9 11 11 11 10 9 10 10 10 11
4 4 6 7 8 5 6 6 4 10 6 5 7 8 9 9 8 6 7 8 10 12 14 15 15 13 13 10 9 10 12 13 13 13 14 15 13 10 9 8 9 10 12 12 11 11 9 9 9
2 5 9 8 7 6 4 7 9 11 5 7 7 7 7 5 4 5 6 8 10 11 12 14 15 12 12 10 10 11 12 12 11 12 14 14 13 12 10 7 7 10 12 12 10 9 8 6 6
3 3 5 7 3 4 7 9 11 7 7 9 8 7 6 4 3 2 3 5 8 10 11 12 13 12 11 9 10 10 11 11 10 12 12 13 13 13 10 7 7 10 9 8 5 4 4 5 5
2 3 6 8 3 4 7 9 9 3 8 9 9 8 7 5 3 1 2 4 7 9 11 11 11 12 11 9 9 9 9 8 9 9 10 11 11 11 9 7 7 7 6 4 3 3 3 4 5
6 6 6 6 4 5 7 11 11 7 8 10 9 9 8 8 5 3 3 5 7 8 9 10 10 10 9 7 5 5 4 4 5 6 7 8 8 7 7 5 5 5 3 2 2 3 3 3 4
7 6 9 9 7 6 11 14 14 10 8 10 9 10 10 8 5 4 5 6 7 8 9 9 10 9 8 6 5 5 4 2 2 3 4 5 5 5 5 4 4 3 2 3 3 2 3 3 2
8 8 9 9 5 5 8 13 13 11 11 12 14 14 12 9 7 6 6 5 6 7 8 8 9 9 8 6 5 4 4 2 2 1 1 2 2 3 3 3 2 2 2 2 2 2 2 2 1
9 9 8 8 7 5 5 10 9 8 7 8 11 13 13 14 12 9 8 7 7 7 8 8 8 9 8 7 6 5 4 3 2 1 0 0 1 2 3 3 3 2 2 2 3 3 3 3 2
9 9 8 6 3 5 2 6 9 6 5 7 10 11 12 11 10 10 9 8 8 7 7 8 8 8 8 8 7 7 5 3 3 2 1 1 0 1 2 2 2 2 1 2 3 3 3 3 4
9 6 5 3 4 4 3 5 10 4 7 10 11 13 13 12 13 12 10 9 8 7 7 8 8 8 7 7 8 8 5 3 2 2 1 1 2 1 0 1 1 1 1 2 3 3 3 3 4
6 4 4 5 3 5 7 8 9 6 10 9 11 13 13 13 12 11 9 9 7 7 7 8 9 7 7 8 8 8 8 6 5 3 2 0 1 1 1 0 1 2 2 3 4 4 5 5 5
6 6 1 3 1 8 5 6 11 11 10 11 16 18 15 14 13 13 12 11 10 9 9 8 9 7 7 8 7 7 7 7 6 4 3 1 0 1 2 1 2 2 4 5 5 4 5 5 6
8 10 8 7 6 6 4 8 9 8 7 8 11 14 14 14 14 15 15 13 12 11 10 9 9 8 7 8 7 6 6 5 4 4 3 3 2 2 2 2 3 5 6 6 5 4 6 5 6
8 8 8 5 3 4 7 7 9 4 2 4 10 13 16 16 15 15 14 13 12 12 11 10 10 8 8 8 7 6 6 5 4 3 2 2 2 2 2 3 3 5 5 5 5 5 6 6 6
9 9 6 6 6 6 7 6 6 7 6 6 11 16 16 15 14 14 14 14 12 11 9 9 9 9 8 8 7 6 5 5 4 3 2 2 2 1 2 3 4 5 5 5 5 5 6 6 7
8 6 6 6 5 6 5 7 7 8 8 11 14 15 17 18 18 16 14 13 12 10 10 9 9 8 8 8 6 6 5 4 4 3 2 2 2 2 3 4 5 5 6 6 6 7 7 8 8
8 10 9 7 7 6 5 8 6 6 7 9 12 12 14 16 15 14 13 13 12 12 11 11 10 9 8 8 7 6 5 4 3 2 2 2 2 3 3 4 5 6 7 7 7 8 9 9 10
Wind_Direction
325 358 66 56 56 49 281 265 196 159 135 186 123 109 118 131 151 170 177 148 149 155 166 165 164 161 158 153 145 139 134 129 124 119 116 112 107 101 96 91 88 84 81 78 76 74 74 73 71
8 35 60 62 87 86 272 253 161 155 165 161 104 107 105 124 183 146 140 159 153 157 164 164 165 163 160 155 150 146 140 136 131 127 122 118 113 107 101 96 93 90 86 83 80 78 76 74 73
2 71 86 78 124 186 224 213 180 179 173 137 93 93 137 165 187 181 180 153 150 158 163 165 166 165 162 158 155 151 147 141 138 135 128 123 117 112 107 102 98 94 91 88 84 81 78 76 75
55 55 60 84 228 229 213 219 179 143 129 123 116 90 89 319 210 192 147 147 151 157 162 167 167 166 165 162 158 156 153 148 145 142 136 130 125 119 113 108 103 100 97 92 88 84 81 79 76
61 76 69 357 257 258 226 210 170 140 156 180 121 119 62 332 65 133 144 152 156 158 163 170 169 169 168 165 162 161 159 157 153 150 145 140 134 128 123 118 113 108 103 98 92 87 84 79 75
55 68 90 257 268 274 256 226 149 116 115 59 101 112 219 319 125 145 152 157 159 161 165 171 171 171 170 169 167 166 165 162 160 157 154 150 145 140 138 133 127 119 110 103 96 89 83 75 65
103 97 171 245 286 293 260 203 130 121 114 143 128 123 238 252 188 158 152 152 157 163 165 171 173 173 174 173 171 170 170 169 167 166 163 161 157 155 153 149 144 139 131 119 104 89 75 59 42
126 102 348 280 287 302 317 15 131 137 158 160 122 146 200 214 184 138 131 145 155 164 167 170 171 172 174 176 175 174 175 175 174 173 170 168 168 170 169 167 169 169 167 165 162 148 17 352 344
95 81 245 246 275 295 329 19 345 16 104 64 75 171 205 153 138 124 120 139 158 169 172 170 169 171 174 176 178 177 179 180 180 178 175 173 174 177 180 180 190 196 199 209 226 248 270 285 296
97 157 231 224 221 227 287 23 321 26 31 38 42 39 99 129 150 157 162 167 172 177 179 175 173 172 174 179 181 180 180 183 182 179 177 177 179 183 189 196 205 212 217 228 246 258 268 277 278
162 200 239 259 239 205 204 265 288 172 236 215 196 175 151 156 170 181 183 180 182 179 180 180 177 174 174 177 176 178 179 181 180 180 181 182 187 192 200 206 215 219 223 232 251 267 270 266 266
212 242 242 258 236 201 205 222 254 214 227 214 191 173 170 178 189 196 196 192 182 177 183 181 179 176 177 176 177 177 177 180 182 186 187 185 188 194 200 203 208 212 219 228 243 254 260 262 264
230 260 286 274 263 238 225 228 239 245 235 216 181 167 177 186 198 208 205 193 180 182 184 182 179 177 176 173 178 180 182 185 190 192 195 194 191 194 197 203 208 214 221 227 236 243 249 253 258
239 259 285 277 263 247 231 254 237 255 226 201 180 179 185 187 195 201 201 195 188 185 182 180 180 178 174 173 175 179 184 188 192 196 199 199 197 196 197 204 211 218 224 229 232 236 239 245 250
274 309 308 280 249 240 193 274 241 244 197 196 191 185 179 184 178 190 202 195 188 181 172 174 177 173 171 171 173 175 181 184 189 197 201 201 201 201 204 206 213 223 228 231 235 241 243 249 252
4 332 294 290 243 195 155 253 265 247 185 198 198 189 175 173 172 186 187 178 173 164 160 167 171 168 168 167 167 170 176 182 192 199 204 208 210 210 208 210 220 229 228 225 227 232 243 252 257
352 260 261 293 244 180 187 242 267 228 182 199 201 193 176 161 148 129 129 152 157 156 152 154 157 163 164 158 159 162 169 178 189 194 200 208 213 214 209 215 227 231 225 225 232 236 237 258 268
234 237 255 267 273 194 224 249 263 248 209 206 199 190 179 169 173 149 116 122 134 139 139 142 147 152 149 140 134 128 130 146 163 176 192 199 205 210 209 217 230 228 220 239 244 254 254 256 269
213 237 262 266 259 220 236 251 258 248 230 217 203 192 183 178 173 135 114 113 116 123 129 135 140 146 143 140 141 138 145 142 135 164 187 197 203 208 206 212 223 220 221 240 249 257 274 278 277
226 247 264 280 277 227 254 264 261 245 225 211 198 190 181 171 163 147 130 121 126 133 132 134 140 145 146 143 139 137 136 132 129 131 146 190 205 215 212 210 218 224 232 263 265 248 269 277 238
231 228 243 259 305 311 295 293 274 265 227 208 194 184 178 172 168 161 147 139 136 141 145 142 140 139 138 132 118 99 81 68 64 66 57 283 215 214 213 213 210 217 211 249 261 249 241 268 275
236 228 222 238 262 281 271 288 284 269 250 210 192 181 181 174 166 162 155 152 154 155 144 135 135 133 134 134 136 140 144 156 183 181 202 322 322 208 208 201 195 204 213 248 262 246 231 236 267
212 208 196 209 206 269 247 234 280 270 243 229 204 192 185 177 170 166 162 158 153 148 142 138 131 130 133 133 139 138 138 148 138 114 101 28 359 349 270 196 191 229 251 264 271 275 254 231 242
170 105 57 49 88 266 223 197 273 236 221 218 200 194 186 176 168 159 151 144 142 143 141 141 136 135 136 134 137 141 145 145 137 134 132 84 353 348 347 314 252 269 269 267 267 264 262 253 252
132 117 22 309 282 248 215 200 248 250 229 206 193 191 184 174 166 161 160 160 158 159 157 152 147 147 147 141 143 148 150 151 154 158 165 171 241 286 283 276 271 274 274 276 275 271 271 263 260
179 160 177 208 227 269 225 221 251 262 265 218 188 175 172 174 173 172 172 169 167 167 165 161 158 155 155 151 151 150 150 149 156 165 171 186 207 235 253 268 276 282 288 289 284 278 275 272 267
160 195 180 156 239 265 269 272 297 277 346 146 155 163 178 181 180 178 175 174 172 172 173 169 164 160 162 160 154 155 157 157 163 169 171 190 221 246 267 284 289 293 294 291 288 280 282 282 274
159 160 139 165 198 235 270 263 250 258 233 187 177 182 185 183 183 182 180 179 178 175 171 167 166 166 165 163 162 159 163 165 164 161 183 215 245 258 289 295 294 294 295 293 290 285 282 282 279
157 168 174 175 185 184 243 263 231 238 220 200 199 193 187 188 189 187 185 181 174 168 167 169 168 163 164 165 160 155 163 163 159 171 203 225 248 273 288 292 295 296 296 294 290 285 285 283 283
180 180 164 176 220 199 201 264 273 260 227 202 201 197 194 194 192 186 180 174 174 174 173 173 171 168 169 165 159 162 163 161 166 190 220 229 258 277 282 288 293 293 293 291 288 288 288 284 284
Height
1534 1536 1538 1540 1544 1554 1554 1545 1538 1537 1535 1534 1534 1535 1538 1541 1545 1550 1546 1544 1545 1546 1547 1549 1551 1552 1554 1555 1556 1556 1557 1558 1558 1558 1558 1558 1558 1558 1558 1557 1557 1557 1557 1556 1556 1556 1556 1556 1556
1535 1536 1539 1540 1550 1561 1555 1542 1538 1533 1533 1533 1534 1535 1537 1539 1540 1542 1542 1543 1544 1545 1547 1548 1550 1552 1553 1555 1555 1556 1557 1558 1558 1559 1559 1559 1559 1559 1558 1558 1558 1557 1557 1557 1557 1557 1557 1556 1556
1535 1536 1539 1542 1551 1557 1548 1538 1535 1532 1532 1532 1534 1536 1537 1538 1539 1540 1541 1542 1543 1545 1546 1548 1550 1551 1553 1554 1555 1556 1557 1558 1558 1559 1559 1559 1559 1559 1559 1559 1558 1558 1558 1558 1558 1557 1557 1557 1557
1536 1538 1539 1546 1548 1544 1539 1534 1531 1531 1532 1532 1533 1536 1538 1539 1539 1540 1540 1541 1543 1544 1546 1547 1549 1551 1552 1554 1555 1556 1557 1558 1558 1559 1560 1560 1560 1560 1559 1559 1559 1559 1559 1559 1558 1558 1558 1558 1558
1536 1537 1543 1549 1545 1537 1532 1530 1529 1529 1530 1531 1533 1535 1536 1538 1538 1539 1540 1541 1542 1544 1545 1547 1548 1550 1551 1553 1554 1555 1557 1558 1558 1559 1560 1560 1560 1560 1560 1560 1560 1560 1560 1560 1559 1559 1559 1559 1559
1537 1538 1550 1552 1544 1535 1531 1529 1528 1528 1530 1531 1533 1534 1535 1537 1537 1538 1540 1541 1542 1543 1544 1546 1548 1549 1551 1552 1554 1555 1556 1557 1558 1559 1560 1560 1560 1560 1560 1560 1560 1561 1560 1560 1560 1560 1560 1560 1560
1537 1542 1547 1545 1543 1536 1530 1528 1527 1527 1529 1531 1532 1534 1535 1536 1537 1538 1539 1540 1542 1543 1544 1545 1546 1548 1550 1551 1553 1554 1556 1557 1558 1559 1559 1560 1560 1560 1561 1561 1561 1561 1561 1561 1561 1561 1561 1560 1560
1536 1541 1544 1544 1542 1536 1531 1529 1528 1527 1528 1530 1531 1532 1533 1535 1536 1537 1538 1539 1541 1542 1543 1544 1545 1547 1549 1550 1552 1553 1555 1556 1557 1558 1559 1559 1560 1560 1561 1561 1561 1561 1561 1561 1561 1561 1561 1561 1561
1536 1544 1547 1542 1539 1535 1531 1529 1529 1528 1528 1529 1530 1530 1531 1533 1534 1535 1536 1538 1539 1540 1541 1543 1544 1546 1547 1549 1551 1553 1554 1555 1557 1558 1558 1559 1560 1560 1560 1561 1561 1561 1561 1561 1561 1561 1561 1561 1561
1535 1545 1541 1535 1533 1532 1531 1530 1529 1528 1528 1528 1528 1529 1529 1531 1532 1533 1533 1534 1535 1537 1539 1541 1542 1544 1546 1548 1550 1551 1553 1554 1556 1557 1558 1558 1559 1559 1560 1560 1560 1560 1561 1561 1561 1561 1561 1560 1560
1533 1537 1533 1531 1530 1530 1529 1528 1528 1527 1527 1526 1526 1527 1528 1529 1530 1531 1531 1531 1532 1534 1536 1538 1541 1543 1544 1546 1548 1550 1552 1553 1554 1555 1556 1557 1558 1558 1559 1559 1559 1560 1560 1560 1560 1560 1559 1559 1559
1532 1531 1530 1529 1528 1528 1527 1526 1526 1524 1524 1524 1524 1525 1526 1526 1527 1528 1529 1529 1530 1532 1534 1536 1538 1541 1543 1545 1546 1548 1550 1552 1553 1554 1555 1556 1557 1557 1557 1558 1558 1558 1558 1559 1558 1558 1558 1557 1557
1530 1529 1527 1526 1526 1525 1524 1523 1523 1520 1520 1521 1521 1522 1523 1524 1524 1525 1526 1527 1528 1529 1531 1534 1536 1538 1541 1543 1545 1547 1549 1550 1552 1553 1554 1554 1555 1556 1556 1556 1557 1557 1557 1557 1557 1556 1556 1555 1554
1528 1527 1525 1523 1522 1522 1521 1520 1520 1515 1517 1517 1518 1519 1520 1520 1521 1521 1522 1523 1525 1526 1528 1531 1534 1536 1539 1541 1543 1545 1547 1549 1550 1551 1552 1553 1553 1554 1554 1555 1555 1555 1555 1555 1554 1554 1553 1552 1552
1527 1527 1525 1520 1518 1518 1520 1521 1515 1511 1513 1514 1515 1516 1517 1517 1518 1518 1518 1519 1521 1523 1525 1528 1531 1534 1537 1539 1541 1544 1545 1547 1548 1549 1550 1551 1552 1552 1553 1553 1553 1553 1553 1553 1552 1551 1551 1550 1549
1527 1530 1532 1520 1516 1516 1522 1523 1510 1509 1510 1510 1512 1513 1514 1514 1515 1515 1515 1516 1518 1520 1523 1526 1529 1532 1535 1537 1540 1542 1544 1545 1546 1548 1549 1549 1550 1550 1550 1551 1551 1551 1551 1550 1549 1549 1548 1547 1545
1533 1537 1532 1524 1516 1516 1518 1518 1507 1506 1506 1507 1508 1509 1510 1511 1512 1512 1513 1514 1515 1518 1521 1524 1527 1530 1533 1536 1538 1540 1542 1543 1545 1546 1546 1547 1548 1548 1548 1548 1548 1548 1548 1547 1546 1545 1544 1543 1541
1535 1534 1530 1525 1516 1516 1517 1514 1506 1504 1504 1504 1505 1506 1507 1508 1509 1510 1510 1512 1514 1516 1519 1522 1525 1528 1531 1534 1537 1538 1540 1541 1543 1544 1544 1545 1545 1546 1546 1546 1545 1545 1544 1544 1543 1542 1541 1539 1537
1526 1527 1528 1522 1514 1515 1515 1510 1503 1501 1502 1501 1501 1502 1503 1505 1507 1508 1509 1510 1512 1514 1517 1520 1523 1526 1529 1532 1534 1536 1538 1539 1541 1541 1542 1543 1543 1543 1543 1542 1542 1541 1541 1540 1539 1538 1536 1535 1534
1523 1527 1525 1519 1512 1512 1512 1507 1499 1495 1494 1493 1494 1496 1498 1501 1503 1505 1507 1508 1510 1513 1516 1518 1521 1524 1527 1530 1532 1534 1536 1537 1538 1539 1539 1540 1540 1540 1539 1539 1539 1538 1537 1536 1535 1534 1532 1531 1530
1520 1522 1520 1519 1513 1509 1510 1507 1497 1489 1487 1488 1489 1491 1494 1496 1499 1502 1504 1506 1509 1511 1514 1517 1520 1522 1525 1528 1530 1532 1534 1535 1536 1537 1537 1537 1537 1537 1536 1536 1535 1535 1534 1533 1532 1531 1529 1528 1527
1518 1512 1513 1514 1519 1522 1515 1521 1499 1490 1486 1485 1485 1487 1490 1493 1496 1499 1502 1504 1507 1510 1513 1516 1518 1521 1524 1526 1528 1530 1531 1532 1533 1534 1534 1534 1534 1534 1533 1533 1532 1532 1531 1530 1529 1527 1526 1524 1523
1509 1506 1508 1510 1516 1521 1518 1520 1501 1490 1488 1483 1482 1483 1486 1490 1493 1496 1499 1503 1506 1509 1512 1514 1517 1520 1522 1524 1526 1528 1529 1531 1531 1532 1532 1532 1532 1531 1531 1530 1530 1529 1528 1526 1525 1524 1522 1520 1519
1502 1507 1511 1518 1521 1527 1516 1520 1505 1489 1480 1476 1477 1480 1483 1487 1491 1494 1498 1501 1505 1508 1511 1513 1516 1518 1521 1523 1525 1526 1528 1528 1529 1529 1529 1529 1529 1529 1528 1527 1527 1526 1524 1523 1521 1520 1518 1516 1514
1502 1514 1526 1526 1532 1525 1509 1511 1496 1473 1469 1468 1469 1473 1478 1483 1487 1491 1495 1498 1502 1505 1509 1512 1514 1517 1519 1521 1523 1524 1526 1526 1527 1527 1527 1527 1526 1526 1525 1525 1523 1522 1521 1519 1517 1515 1513 1511 1509
1501 1506 1522 1528 1527 1517 1504 1506 1483 1466 1463 1462 1465 1470 1476 1481 1484 1488 1491 1495 1499 1503 1507 1509 1512 1515 1517 1519 1521 1522 1523 1524 1525 1525 1524 1524 1523 1523 1522 1521 1520 1518 1517 1515 1512 1510 1508 1505 1503
1499 1503 1502 1513 1513 1515 1504 1491 1475 1463 1462 1462 1465 1469 1473 1477 1481 1485 1489 1493 1497 1500 1504 1507 1510 1513 1515 1517 1519 1520 1521 1522 1522 1522 1521 1521 1520 1519 1518 1517 1516 1514 1512 1510 1507 1504 1502 1499 1496
1487 1493 1505 1511 1517 1517 1504 1492 1481 1466 1464 1464 1465 1467 1470 1474 1479 1482 1486 1490 1494 1498 1502 1505 1508 1511 1513 1515 1516 1517 1518 1519 1519 1519 1518 1518 1517 1516 1514 1513 1511 1509 1507 1504 1501 1498 1495 1492 1489
1487 1491 1494 1502 1506 1511 1508 1492 1466 1462 1460 1461 1461 1463 1466 1470 1474 1478 1482 1487 1491 1495 1499 1502 1505 1508 1510 1512 1513 1515 1515 1516 1516 1516 1515 1514 1513 1512 1510 1508 1506 1504 1501 1498 1495 1492 1488 1485 1482
1476 1480 1488 1499 1500 1500 1501 1488 1458 1457 1456 1456 1458 1461 1464 1467 1471 1475 1479 1484 1488 1491 1495 1498 1501 1504 1507 1509 1510 1511 1512 1512 1512 1512 1512 1510 1509 1508 1506 1503 1501 1498 1495 1492 1489 1485 1482 1478 1474